This demonstration page uses our WeatherBlox Daily Observations layout. Learn more.

Hourly Observations for May 14, 2020

Temp ( °F °C ) Dew Point ( °F °C ) Humidity (%) Winds ( mph kmh ) Pressure ( in mb ) Visibility ( mi km ) Precip ( " mm )
12:15 am 00:15 Clear 48 9 43 6 82 82 Calm 30.29 1026 10 16.0934 0 0
12:35 am 00:35 Clear 46 8 43 6 87 87 Calm 30.3 1026 10 16.0934 0 0
12:55 am 00:55 Clear 45 7 43 6 93 93 Calm 30.29 1026 10 16.0934 0 0
1:15 am 01:15 Clear 45 7 43 6 93 93 Calm 30.29 1026 10 16.0934 0 0
1:35 am 01:35 Clear 45 7 41 5 87 87 Calm 30.29 1026 10 16.0934 0 0
1:55 am 01:55 Clear 43 6 41 5 93 93 Calm 30.29 1026 10 16.0934 0 0
2:15 am 02:15 Clear 45 7 41 5 87 87 Calm 30.29 1026 10 16.0934 0 0
2:35 am 02:35 Clear 43 6 41 5 93 93 Calm 30.29 1026 10 16.0934 0 0
2:55 am 02:55 Clear 45 7 41 5 87 87 Calm 30.29 1026 10 16.0934 0 0
3:15 am 03:15 Clear 43 6 41 5 93 93 Calm 30.29 1026 10 16.0934 0 0
3:35 am 03:35 Clear 41 5 41 5 100 100 Calm 30.29 1026 10 16.0934 0 0
3:55 am 03:55 Clear 43 6 41 5 93 93 Calm 30.3 1026 10 16.0934 0 0
4:15 am 04:15 Mostly Cloudy 43 6 41 5 93 93 Calm 30.3 1026 10 16.0934 0 0
4:35 am 04:35 Cloudy 45 7 43 6 93 93 Calm 30.3 1026 10 16.0934 0 0
4:55 am 04:55 Cloudy 45 7 43 6 93 93 Calm 30.29 1026 10 16.0934 0 0
5:15 am 05:15 Cloudy 45 7 41 5 87 87 Calm 30.29 1026 10 16.0934 0 0
5:35 am 05:35 Cloudy 46 8 41 5 82 82 Calm 30.29 1026 10 16.0934 0 0
5:55 am 05:55 Cloudy 46 8 41 5 82 82 Calm 30.3 1026 10 16.0934 0 0
6:15 am 06:15 Cloudy 46 8 41 5 82 82 Calm 30.3 1026 10 16.0934 0 0
6:35 am 06:35 Mostly Cloudy 46 8 41 5 82 82 N 3 6 30.3 1026 10 16.0934 0 0
6:55 am 06:55 Mostly Cloudy 46 8 41 5 82 82 Calm 30.31 1026 10 16.0934 0 0
7:15 am 07:15 Cloudy 48 9 43 6 82 82 Calm 30.31 1026 10 16.0934 0 0
7:35 am 07:35 Cloudy 50 10 43 6 76 76 Calm 30.31 1026 10 16.0934 0 0
7:55 am 07:55 Cloudy 50 10 43 6 76 76 Calm 30.32 1027 10 16.0934 0 0
8:15 am 08:15 Cloudy 50 10 43 6 76 76 Calm 30.32 1027 10 16.0934 0 0
8:35 am 08:35 Cloudy 52 11 45 7 77 77 Calm 30.31 1027 10 16.0934 0 0
8:55 am 08:55 Cloudy 52 11 45 7 77 77 Calm 30.31 1027 10 16.0934 0 0
9:15 am 09:15 undefined N/A N/A N/A undefined N/A N/A N/A 0 0
9:35 am 09:35 undefined N/A N/A N/A undefined N/A N/A N/A 0 0
9:55 am 09:55 undefined N/A N/A N/A undefined N/A N/A N/A 0 0
10:15 am 10:15 Partly Cloudy with Thunderstorms N/A N/A N/A SSE 6 9 N/A N/A 0 0
10:35 am 10:35 Cloudy 55 13 46 8 72 72 S 3 6 30.29 1026 10 16.0934 0 0
10:55 am 10:55 Cloudy 57 14 46 8 67 67 Calm 30.28 1025 10 16.0934 0 0
11:15 am 11:15 Cloudy 59 15 48 9 68 68 S 7 11 30.27 1025 10 16.0934 0 0
11:35 am 11:35 Cloudy 61 16 50 10 68 68 SSW 8 13 30.26 1025 10 16.0934 0 0
11:55 am 11:55 Cloudy 61 16 50 10 68 68 S 8 13 30.26 1025 10 16.0934 0 0
12:15 pm 12:15 Cloudy 63 17 52 11 68 68 S 10 17 30.25 1024 10 16.0934 0 0
12:35 pm 12:35 Cloudy 64 18 52 11 64 64 S 12 19 30.23 1024 10 16.0934 0 0
12:55 pm 12:55 Cloudy 64 18 52 11 64 64 SSW 8 13 30.22 1024 10 16.0934 0 0
1:15 pm 13:15 Cloudy 64 18 52 11 64 64 SSW 9 15 30.21 1023 10 16.0934 0 0
1:35 pm 13:35 Cloudy 68 20 54 12 60 60 S 14 22 30.2 1023 10 16.0934 0 0
1:55 pm 13:55 Cloudy 68 20 54 12 60 60 SW 8 13 30.19 1022 10 16.0934 0 0
2:15 pm 14:15 Cloudy 66 19 54 12 64 64 S 8 13 30.19 1022 10 16.0934 0 0
2:35 pm 14:35 Cloudy 68 20 55 13 64 64 S 9 15 30.17 1022 10 16.0934 0 0
2:55 pm 14:55 Cloudy 68 20 55 13 64 64 S 9 15 30.17 1022 10 16.0934 0 0
3:15 pm 15:15 Mostly Cloudy 70 21 55 13 60 60 S 10 17 30.16 1021 10 16.0934 0 0
3:35 pm 15:35 Mostly Cloudy 70 21 55 13 60 60 S 9 15 30.16 1021 10 16.0934 0 0
3:55 pm 15:55 Cloudy 70 21 57 14 64 64 SSE 8 13 30.15 1021 10 16.0934 0 0
4:15 pm 16:15 Mostly Cloudy 70 21 55 13 60 60 S 9 15 30.14 1021 10 16.0934 0 0
4:35 pm 16:35 Mostly Cloudy 70 21 57 14 64 64 S 9 15 30.13 1020 10 16.0934 0 0
4:55 pm 16:55 Mostly Cloudy 70 21 57 14 64 64 S 9 15 30.13 1020 10 16.0934 0 0
5:15 pm 17:15 Partly Cloudy 70 21 57 14 64 64 SSW 9 15 30.12 1020 10 16.0934 0 0
5:35 pm 17:35 Partly Cloudy 70 21 59 15 69 69 S 5 7 30.12 1020 10 16.0934 0 0
5:55 pm 17:55 Sunny 72 22 59 15 65 65 S 8 13 30.11 1020 10 16.0934 0 0
6:15 pm 18:15 Sunny 72 22 59 15 65 65 SSE 6 9 30.11 1020 10 16.0934 0 0
6:35 pm 18:35 Sunny 72 22 59 15 65 65 S 8 13 30.1 1019 10 16.0934 0 0
6:55 pm 18:55 Sunny 72 22 59 15 65 65 SSE 5 7 30.09 1019 10 16.0934 0 0
7:15 pm 19:15 Sunny 72 22 59 15 65 65 S 7 11 30.09 1019 10 16.0934 0 0
7:35 pm 19:35 Sunny 72 22 59 15 65 65 SSE 7 11 30.08 1019 10 16.0934 0 0
7:55 pm 19:55 Partly Cloudy 70 21 59 15 69 69 SSE 5 7 30.09 1019 10 16.0934 0 0
8:15 pm 20:15 Mostly Cloudy 70 21 59 15 69 69 SSE 5 7 30.1 1019 10 16.0934 0 0
8:35 pm 20:35 Cloudy 68 20 61 16 78 78 S 3 6 30.1 1019 10 16.0934 0 0
8:55 pm 20:55 Cloudy 68 20 61 16 78 78 SSE 6 9 30.1 1019 10 16.0934 0 0
9:15 pm 21:15 Cloudy 68 20 59 15 73 73 S 8 13 30.1 1019 10 16.0934 0 0
9:35 pm 21:35 Mostly Cloudy 66 19 59 15 78 78 SSW 5 7 30.11 1020 10 16.0934 0 0
9:55 pm 21:55 Clear 66 19 59 15 78 78 S 6 9 30.1 1019 10 16.0934 0 0
10:15 pm 22:15 Clear 64 18 59 15 83 83 S 5 7 30.1 1019 10 16.0934 0 0
10:35 pm 22:35 Clear 64 18 59 15 83 83 S 3 6 30.09 1019 10 16.0934 0 0
10:55 pm 22:55 Clear 63 17 59 15 88 88 SSW 3 6 30.1 1019 10 16.0934 0 0
11:15 pm 23:15 Clear 61 16 59 15 94 94 WSW 3 6 30.09 1019 10 16.0934 0 0
11:35 pm 23:35 Clear 61 16 59 15 94 94 SSW 3 6 30.09 1019 10 16.0934 0 0
11:55 pm 23:55 Clear 61 16 59 15 94 94 SSW 5 7 30.08 1019 10 16.0934 0 0

Powered by AerisWeather